Location: Cantaing
(50.1487°N, 3.1675°E)
Time: 23:16:37
(UTC+00:00)

Cosmos 2082 Rocket - Pass Details

Date: 11 April 2026
Orbit: 831 x 853 km, 71.0° (Epoch: 19 May)

Event Time Altitude Azimuth Distance (km) Brightness Sun altitude
Exits shadow 01:58:09 16° 140° (SE) 2,069 4.1 -25.1°
Maximum altitude 02:00:58 23° 102° (ESE) 1,725 4.0 -24.9°
Drops below altitude 10° 02:05:21 10° 51° (NE) 2,490 5.6 -24.4°
Sets 02:08:16 0° 38° (NE) 3,432 6.8 -24.2°
